Flag for U.S.A. Weather past 2 weeks in Shreveport, Louisiana, U.S.A.

Now
72 °F

Low clouds.


Feels Like: 67 °F
Forecast: 74 / 93 °F
Wind: No wind

Location: Shreveport Regional Airport

Current Time: Jul 24, 2014 at 4:12:04 AM

Latest Report: Jul 24, 2014 at 3:03 AM


Visibility: 9 mi

Pressure: 29.99 "Hg

Humidity: 94%

Dew point: 70 °F

Location of ShreveportLocation

Historic Weather in Shreveport — Graph

°F

Shreveport temperature yesterday

Maximum temperature yesterday: 93 °F (at 2:56 PM)
Minimum temperature yesterday: 71 °F (at 10:56 PM)
Average temperature yesterday: 80 °F

Past Weeks' High & Low Weather Summary

 TemperatureHumidityPressure
High98 °F (Jul 13, 3:56 PM)94% (Jul 13, 5:56 AM)30.14 "Hg (Jul 13, 5:56 AM)
Low65 °F (Jul 21, 3:56 AM)33% (Jul 13, 3:56 PM)29.88 "Hg (Jul 14, 5:56 PM)
Average79 °F73%30.01 "Hg
* Reported Jul 9 3:56 AM — Jul 24 3:03 AM, Shreveport, Weather by CustomWeather, © 2014

Note: Actual official high and low records may vary slightly from our data, if they occured in-between our weather recording intervals... More about our weather records

Advertising

Shreveport weather history for previous 24 hours

 ConditionsComfort  
Time TempWeatherWind HumidityBarometerVisibility
3:03 AM
Jul 24
72 °FLow clouds.No wind94%29.99 "Hg9 mi
1:56 AM71 °FPassing clouds.3 mph90%29.97 "Hg10 mi
12:56 AM71 °FPassing clouds.5 mph90%29.95 "Hg10 mi
11:56 PM
Jul 23
71 °FPassing clouds.No wind90%29.95 "Hg10 mi
10:56 PM71 °FOvercast.No wind90%29.99 "Hg10 mi
9:56 PM73 °FMostly cloudy.7 mph84%30.03 "Hg10 mi
8:56 PM72 °FCloudy.12 mph87%30.08 "Hg10 mi
7:56 PM73 °FThunderstorms. Mostly cloudy.16 mph88%30.10 "Hg10 mi
6:56 PM87 °FMore clouds than sun.7 mph59%30.00 "Hg10 mi
5:56 PM89 °FOvercast.7 mph55%29.99 "Hg10 mi
4:56 PM92 °FBroken clouds.9 mph47%29.96 "Hg10 mi
3:56 PM91 °FScattered clouds.5 mph49%29.96 "Hg10 mi
2:56 PM93 °FScattered clouds.3 mph44%29.99 "Hg10 mi
1:56 PM92 °FBroken clouds.No wind47%30.03 "Hg10 mi
12:56 PM91 °FPassing clouds.3 mph49%30.05 "Hg10 mi
11:56 AM87 °FPartly sunny.3 mph55%30.06 "Hg10 mi
10:56 AM88 °FScattered clouds.5 mph55%30.07 "Hg10 mi
9:56 AM86 °FPassing clouds.No wind61%30.08 "Hg10 mi
8:56 AM81 °FSunny.No wind77%30.07 "Hg9 mi
7:56 AM78 °FSunny.No wind84%30.06 "Hg8 mi
6:56 AM72 °FFog.No wind93%30.06 "Hg6 mi
5:56 AM72 °FClear.No wind91%30.05 "Hg9 mi
4:56 AM72 °FClear.No wind93%30.05 "Hg10 mi
Weather by CustomWeather, © 2014

See weather overviewHow to use our weather pages